Location: Podia
(1.5569°N, 32.3469°E)
Time: 00:13:38
(UTC+00:00)

Cosmos 1464 Rocket - Pass Details

Date: 01 June 2020
Orbit: 953 x 1001 km, 82.9° (Epoch: 13 July)

Event Time Altitude Azimuth Distance (km) Brightness Sun altitude
Rises 17:23:55 0° 359° (N) 3,709 7.4 -21.3°
Reaches altitude 10° 17:26:27 10° 0° (N) 2,760 6.7 -21.9°
Maximum altitude 17:32:48 80° 87° (E) 1,011 3.9 -23.3°
Enters shadow 17:36:06 31° 170° (S) 1,677 4.9 -24.1°
